Zurück zum Katalog

FENGYUN 1C DEB

AktivSSO
NORAD 38829·DEBRIS·🇨🇳 China

Gestartet May 10, 1999 von Taiyuan Satellite Launch Center

Loading…

Nächste Überflüge (nächste 24 Stunden)

TLE

AktuellSource: Space-Track

Epoche: Sep 14, 2026, 06:39 UTC

1 38829U 99025EVV 26257.27766229  .00000519  00000-0  31802-3 0  9990
2 38829  98.7389 270.2768 0039998 331.7987  28.1018 14.09708479680142

Verfolge FENGYUN 1C DEB in Echtzeit mit AllMySat

Download on the App Store